Regional Weather Roundup
Issued by NWS Albany, NY

Home | Current Version | Previous Version | Text Only | Print | Product List | Glossary On
Versions: 1 2 3 4 5 6 7 8 9 10 11 12 13 14 15 16 17 18 19 20 21 22 23 24 25 26 27 28 29 30 31 32 33 34 35 36 37 38 39 40 41 42 43 44 45 46 47 48 49 50
000
ASUS41 KALY 090710
RWRALY

NEW YORK STATE HOURLY WEATHER ROUNDUP
NATIONAL WEATHER SERVICE ALBANY NY
200 AM EST TUE FEB 09 2016

NOTE: "FAIR" INDICATES FEW OR NO CLOUDS BELOW 12,000 FEET WITH NO
SIGNIFICANT WEATHER AND/OR NO OBSTRUCTIONS TO VISIBILITY.

NYZ032-033-038>043-046>054-057>066-NYZ062>081-090800-
EAST


CITY           SKY/WX    TMP DP  RH WIND       PRES   REMARKS
ALBANY         LGT SNOW  25  21  85 CALM      29.74F FOG
GLENS FALLS    CLOUDY    21  18  88 NE3       29.74F FOG
POUGHKEEPSIE   LGT SNOW  26  21  81 E3        29.73F
NEWBURGH       CLOUDY    23  21  93 E9        29.72F WCI  13
MONTGOMERY     CLOUDY    25  22  88 NE3       29.71F
WHITE PLAINS   CLOUDY    24  18  77 E3        29.72S
ISLIP          CLOUDY    26  21  81 E5        29.72F WCI  20
NEW YORK CITY  CLOUDY    28  22  78 E9        29.74S WCI  19
CENTRAL PARK   CLOUDY    28  21  75 NE8       29.75S WCI  20
$$

NYZ005>009-017-018-044>046-055-056-090800-
CENTRAL


CITY           SKY/WX    TMP DP  RH WIND       PRES   REMARKS
FULTON         FLURRIES  30  24  78 VRB6      29.62F WCI  24
SYRACUSE       FLURRIES  26  24  92 E13       29.63F WCI  15
ROME           LGT SNOW  25  20  81 E10       29.69F WCI  15
ELMIRA         FLURRIES  33  30  88 SE6       29.57F WCI  28
BINGHAMTON     LGT SNOW  25  23  92 SE9       29.56F FOG     WCI  15
MONTICELLO     CLOUDY    21  19  93 E7        29.65S WCI  13
$$

NYZ026>034-041>043-090800-
NORTH


CITY           SKY/WX    TMP DP  RH WIND       PRES   REMARKS
WATERTOWN      LGT SNOW  25  17  72 NE5       29.65F WCI  19
FORT DRUM      NOT AVBL
MASSENA        LGT SNOW  18  13  80 NE15      29.76F WCI   4
SARANAC LAKE   LGT SNOW  16  13  88 E5        29.62F FOG     WCI   9
PLATTSBURGH    LGT SNOW  20  16  84 N9        29.76F FOG     WCI   9
$$

NYZ001>004-010>016-019>021-090800-
WEST


CITY           SKY/WX    TMP DP  RH WIND       PRES   REMARKS
NIAGARA FALLS  LGT SNOW  34  31  88 SE6       29.51F FOG     WCI  29
BUFFALO        CLOUDY    33  32  96 E5        29.51F FOG     WCI  29
DUNKIRK        CLOUDY    35  31  85 SW12      29.53S WCI  27
JAMESTOWN      CLOUDY    30  28  93 SW6       29.49F WCI  24
WELLSVILLE     CLOUDY    32  26  78 S12       29.49F WCI  23
ROCHESTER      LGT SNOW  33  32  96 SE8       29.55F FOG     WCI  26
PENN YAN       CLOUDY    32  29  88 SE6       29.55F WCI  26
$$

             KEY
       WCI = WIND CHILL INDEX
       VSB = VISIBILITY
       HX  = HEAT INDEX
$$



USA.gov is the U.S. government's official web portal to all federal, state and local government web resources and services.